When you browse on this site, cookies collect data to enhance your experience and personalize the content and advertising you see.
Visit our Privacy Policy to learn more. By continuing to use the site, you agree to this use of cookies and data.
  • In Hungary
  • List of Countries
  • For 7 days
  • Water Temperature
  • Weather Map
  • News
  • Weather Widgets
  • user-avatar
    Login

    Hourly Weather Tadani

    Today, 12 November, Tuesday

    Time Temperature Precipitation Wind Pressure Humidity
    00:00 +3°C° 0 mm 3 mps 743 mmHg 87%
    01:00 +4°C° 0 mm 3 mps 743 mmHg 87%
    02:00 +4°C° 0 mm 3 mps 743 mmHg 89%
    03:00 +4°C° 0 mm 3 mps 743 mmHg 89%
    04:00 +4°C° 0 mm 3 mps 743 mmHg 88%
    05:00 +4°C° 0 mm 3 mps 742 mmHg 88%
    06:00 +4°C° 0 mm 3 mps 742 mmHg 88%
    07:00 +4°C° 0 mm 3 mps 742 mmHg 88%
    08:00 +4°C° 0 mm 3 mps 742 mmHg 87%
    09:00 +5°C° 0 mm 4 mps 742 mmHg 81%
    10:00 +7°C° 0 mm 4 mps 742 mmHg 75%
    11:00 +10°C° 0 mm 4 mps 742 mmHg 69%
    12:00 +10°C° 0 mm 4 mps 742 mmHg 68%
    13:00 +11°C° 0 mm 4 mps 741 mmHg 66%
    14:00 +12°C° 0 mm 4 mps 741 mmHg 65%
    15:00 +11°C° 0 mm 4 mps 740 mmHg 69%
    16:00 +10°C° 0 mm 4 mps 740 mmHg 73%
    17:00 +8°C° 0 mm 4 mps 739 mmHg 77%
    18:00 +10°C° 0 mm 4 mps 739 mmHg 77%
    19:00 +10°C° 0 mm 4 mps 739 mmHg 78%
    20:00 +10°C° 0 mm 4 mps 739 mmHg 78%
    21:00 +10°C° 0 mm 5 mps 738 mmHg 79%
    22:00 +10°C° 0 mm 5 mps 738 mmHg 79%
    23:00 +10°C° 0 mm 5 mps 738 mmHg 80%

    Tomorrow, 13 November, Wednesday

    Time Temperature Precipitation Wind Pressure Humidity
    00:00 +10°C° 0 mm 6 mps 738 mmHg 79%
    01:00 +11°C° 0 mm 6 mps 738 mmHg 77%
    02:00 +11°C° 0 mm 7 mps 738 mmHg 75%
    03:00 +11°C° 0 mm 7 mps 738 mmHg 74%
    04:00 +11°C° 0 mm 7 mps 737 mmHg 72%
    05:00 +11°C° 0 mm 7 mps 737 mmHg 70%
    06:00 +11°C° 0 mm 7 mps 736 mmHg 71%
    07:00 +11°C° 0 mm 7 mps 736 mmHg 72%
    08:00 +11°C° 0 mm 7 mps 736 mmHg 74%
    09:00 +12°C° 0 mm 8 mps 736 mmHg 70%
    10:00 +13°C° 0 mm 9 mps 736 mmHg 66%
    11:00 +14°C° 0 mm 10 mps 736 mmHg 62%
    12:00 +16°C° 0 mm 9 mps 736 mmHg 59%
    13:00 +17°C° 0 mm 8 mps 736 mmHg 56%
    14:00 +18°C° 0 mm 7 mps 736 mmHg 53%
    15:00 +17°C° 0 mm 7 mps 735 mmHg 55%
    16:00 +16°C° 0 mm 6 mps 735 mmHg 57%
    17:00 +15°C° 0 mm 6 mps 735 mmHg 59%
    18:00 +15°C° 0 mm 7 mps 735 mmHg 59%
    19:00 +15°C° 0 mm 7 mps 735 mmHg 59%
    20:00 +15°C° 0 mm 7 mps 735 mmHg 59%
    21:00 +15°C° 0 mm 7 mps 735 mmHg 61%
    22:00 +15°C° 0 mm 7 mps 735 mmHg 64%
    23:00 +15°C° 0 mm 7 mps 736 mmHg 66%

    Day after tomorrow, 14 November, Thursday

    Time Temperature Precipitation Wind Pressure Humidity
    00:00 +15°C° 0 mm 7 mps 736 mmHg 68%
    01:00 +15°C° 0 mm 7 mps 736 mmHg 69%
    02:00 +14°C° 0 mm 7 mps 736 mmHg 71%
    03:00 +14°C° 0 mm 6 mps 736 mmHg 72%
    04:00 +14°C° 0 mm 6 mps 736 mmHg 74%
    05:00 +14°C° 0 mm 5 mps 736 mmHg 75%
    06:00 +14°C° 0.1 mm 5 mps 737 mmHg 77%
    07:00 +13°C° 0.1 mm 5 mps 737 mmHg 79%
    08:00 +13°C° 0.1 mm 5 mps 738 mmHg 80%
    09:00 +13°C° 0.1 mm 5 mps 738 mmHg 79%
    10:00 +14°C° 0.1 mm 5 mps 738 mmHg 77%
    11:00 +14°C° 0.1 mm 4 mps 739 mmHg 76%
    12:00 +14°C° 0.1 mm 4 mps 739 mmHg 75%
    13:00 +14°C° 0.1 mm 3 mps 739 mmHg 75%
    14:00 +14°C° 0.1 mm 3 mps 739 mmHg 75%
    15:00 +14°C° 0 mm 3 mps 739 mmHg 75%
    16:00 +14°C° 0 mm 3 mps 739 mmHg 75%
    17:00 +13°C° 0 mm 4 mps 739 mmHg 74%
    18:00 +13°C° 0 mm 3 mps 740 mmHg 75%
    19:00 +12°C° 0 mm 3 mps 740 mmHg 76%
    20:00 +12°C° 0 mm 3 mps 740 mmHg 77%
    21:00 +12°C° 0 mm 3 mps 740 mmHg 77%
    22:00 +12°C° 0 mm 4 mps 740 mmHg 78%
    23:00 +11°C° 0 mm 4 mps 740 mmHg 78%

    15 November, Friday

    Time Temperature Precipitation Wind Pressure Humidity
    00:00 +11°C° 0 mm 4 mps 740 mmHg 79%
    01:00 +11°C° 0 mm 4 mps 740 mmHg 80%
    02:00 +10°C° 0 mm 4 mps 741 mmHg 81%
    03:00 +10°C° 0 mm 4 mps 741 mmHg 82%
    04:00 +10°C° 0 mm 3 mps 740 mmHg 83%
    05:00 +9°C° 0 mm 3 mps 740 mmHg 84%
    06:00 +9°C° 0 mm 3 mps 741 mmHg 85%
    07:00 +9°C° 0 mm 3 mps 741 mmHg 86%
    08:00 +8°C° 0 mm 3 mps 741 mmHg 87%
    09:00 +8°C° 0 mm 4 mps 741 mmHg 83%
    10:00 +10°C° 0 mm 4 mps 742 mmHg 78%
    11:00 +10°C° 0 mm 5 mps 742 mmHg 74%
    12:00 +12°C° 0 mm 5 mps 742 mmHg 71%
    13:00 +12°C° 0 mm 4 mps 742 mmHg 68%
    14:00 +13°C° 0 mm 4 mps 742 mmHg 66%
    15:00 +12°C° 0 mm 4 mps 742 mmHg 68%
    16:00 +11°C° 0 mm 4 mps 742 mmHg 71%
    17:00 +10°C° 0 mm 4 mps 742 mmHg 73%
    18:00 +10°C° 0 mm 4 mps 742 mmHg 75%
    19:00 +8°C° 0 mm 4 mps 742 mmHg 77%
    20:00 +8°C° 0 mm 4 mps 743 mmHg 79%
    21:00 +7°C° 0 mm 4 mps 743 mmHg 81%
    22:00 +7°C° 0 mm 4 mps 743 mmHg 83%
    23:00 +7°C° 0 mm 4 mps 743 mmHg 85%

    16 November, Saturday

    Time Temperature Precipitation Wind Pressure Humidity
    00:00 +8°C° 0 mm 3 mps 743 mmHg 86%
    01:00 +7°C° 0 mm 3 mps 743 mmHg 87%
    02:00 +7°C° 0 mm 3 mps 743 mmHg 87%
    03:00 +7°C° 0 mm 3 mps 743 mmHg 89%
    04:00 +7°C° 0 mm 3 mps 743 mmHg 91%
    05:00 +7°C° 0 mm 3 mps 743 mmHg 92%
    06:00 +7°C° 0 mm 3 mps 743 mmHg 93%
    07:00 +7°C° 0 mm 3 mps 744 mmHg 93%
    08:00 +7°C° 0 mm 3 mps 744 mmHg 93%
    09:00 +8°C° 0 mm 3 mps 744 mmHg 88%
    10:00 +9°C° 0 mm 3 mps 745 mmHg 84%
    11:00 +11°C° 0 mm 3 mps 745 mmHg 79%
    12:00 +11°C° 0 mm 3 mps 745 mmHg 77%
    13:00 +12°C° 0 mm 3 mps 745 mmHg 75%
    14:00 +13°C° 0 mm 4 mps 745 mmHg 73%
    15:00 +12°C° 0 mm 3 mps 745 mmHg 78%
    16:00 +11°C° 0 mm 3 mps 745 mmHg 83%
    17:00 +10°C° 0 mm 3 mps 745 mmHg 88%
    18:00 +9°C° 0 mm 3 mps 745 mmHg 89%
    19:00 +9°C° 0 mm 3 mps 745 mmHg 90%
    20:00 +8°C° 0 mm 3 mps 745 mmHg 90%
    21:00 +8°C° 0 mm 3 mps 746 mmHg 90%
    22:00 +8°C° 0 mm 3 mps 746 mmHg 90%
    23:00 +7°C° 0 mm 3 mps 746 mmHg 90%

    17 November, Sunday

    Time Temperature Precipitation Wind Pressure Humidity
    00:00 +7°C° 0 mm 3 mps 745 mmHg 89%
    01:00 +7°C° 0 mm 3 mps 745 mmHg 87%
    02:00 +7°C° 0 mm 3 mps 745 mmHg 85%
    03:00 +6°C° 0 mm 4 mps 745 mmHg 84%
    04:00 +5°C° 0 mm 4 mps 745 mmHg 83%
    05:00 +5°C° 0 mm 4 mps 745 mmHg 82%
    06:00 +5°C° 0 mm 5 mps 745 mmHg 82%
    07:00 +5°C° 0 mm 5 mps 745 mmHg 82%
    08:00 +3°C° 0 mm 5 mps 744 mmHg 82%
    09:00 +5°C° 0 mm 5 mps 744 mmHg 77%
    10:00 +5°C° 0 mm 6 mps 744 mmHg 72%
    11:00 +7°C° 0 mm 6 mps 745 mmHg 67%
    12:00 +7°C° 0 mm 6 mps 744 mmHg 65%
    13:00 +8°C° 0 mm 6 mps 744 mmHg 62%
    14:00 +9°C° 0 mm 6 mps 744 mmHg 60%
    15:00 +8°C° 0 mm 6 mps 744 mmHg 65%
    16:00 +7°C° 0 mm 5 mps 743 mmHg 70%
    17:00 +6°C° 0 mm 5 mps 743 mmHg 75%
    18:00 +6°C° 0 mm 5 mps 743 mmHg 77%
    19:00 +5°C° 0 mm 5 mps 743 mmHg 80%
    20:00 +4°C° 0 mm 6 mps 743 mmHg 82%
    21:00 +4°C° 0 mm 6 mps 743 mmHg 83%
    22:00 +5°C° 0 mm 5 mps 743 mmHg 83%
    23:00 +5°C° 0 mm 5 mps 743 mmHg 84%
    Show more